This demonstration page uses our WeatherBlox Daily Observations layout. Learn more.

Left ArrowRight Arrow

39.08367, -84.50855

Hourly Observations for March 24, 2018

Temp ( °F °C ) Dew Point ( °F °C ) Humidity (%) Winds ( mph kmh ) Pressure ( in mb ) Visibility ( mi km ) Precip ( " mm )
12:53 am 00:53 Clear 31 -0.6 27 -2.8 85 85 N N/A 30.27 1025 10 16 N/A
1:53 am 01:53 Clear 28 -2.2 25 -3.9 88 88 N N/A 30.27 1025 10 16 N/A
2:53 am 02:53 Clear 28 -2.2 25 -3.9 88 88 NNE 5 7 30.26 1025 10 16 N/A
3:53 am 03:53 Clear 32 undefined 26 -3.3 79 79 NNE 6 9 30.27 1025 10 16 N/A
4:53 am 04:53 Mostly Cloudy 33 0.6 26 -3.3 75 75 NE 7 11 30.25 1025 10 16 N/A
5:53 am 05:53 Cloudy 36 2.2 24 -4.4 62 62 ENE 6 9 30.25 1024 10 16 N/A
6:53 am 06:53 Cloudy 36 2.2 23 -5 59 59 ENE 7 11 30.24 1024 10 16 N/A
7:53 am 07:53 Cloudy 35 1.7 22 -5.6 59 59 E 6 9 30.23 1024 10 16 N/A
8:53 am 08:53 Cloudy 35 1.7 22 -5.6 59 59 E 6 9 30.24 1024 10 16 N/A
9:15 am 09:15 Cloudy with Light Snow 34 1.1 24 -4.4 67 67 E 14 22 30.27 1025 2 3 N/A
9:53 am 09:53 Cloudy with Light Snow 32 undefined 28 -2.2 85 85 ESE 6 9 30.21 1023 2 3 N/A
10:53 am 10:53 Cloudy with Light Snow 32 undefined 29 -1.7 88 88 ENE 8 13 30.21 1023 2 3 0.01 0.25
11:05 am 11:05 Cloudy with Light Snow 32 undefined 30 -1.1 92 92 NE 9 15 30.24 1024 2 3 N/A
11:53 am 11:53 Cloudy with Light Snow 32 undefined 30 -1.1 92 92 VRB 7 11 30.22 1023 1 2 0.01 0.25
12:30 pm 12:30 Cloudy with Light Snow 32 undefined 31 -0.6 96 96 ENE 6 9 30.21 1023 1 2 0.02 0.51
12:53 pm 12:53 Cloudy with Light Snow 32 undefined 31 -0.6 96 96 ENE 6 9 30.19 1023 1 2 0.03 0.76
1:03 pm 13:03 Cloudy with Light Snow 32 undefined 31 -0.6 96 96 NE 8 13 30.21 1023 1 2 0.01 0.25
1:10 pm 13:10 Cloudy with Light Snow 32 undefined 31 -0.6 96 96 ENE 6 9 30.21 1023 1 2 0.01 0.25
1:53 pm 13:53 Cloudy with Snow 32 undefined 31 -0.6 96 96 ENE 7 11 30.16 1021 1 1 0.05 1.27
2:53 pm 14:53 Cloudy with Light Snow 33 0.6 32 undefined 96 96 NE 8 13 30.12 1020 1 1 0.03 0.76
3:53 pm 15:53 Cloudy 34 1.1 30 -1.1 85 85 N N/A 30.14 1021 10 16 N/A
4:27 pm 16:27 Cloudy with Light Snow 34 1.1 30 -1.1 85 85 NE 7 11 30.12 1020 2 3 0.03 0.76
4:53 pm 16:53 Mostly Cloudy with Light Snow 33 0.6 31 -0.6 92 92 N N/A 30.13 1020 1 2 0.05 1.27
5:50 pm 17:50 Cloudy with Light Snow 34 1 30 -1 87 87 NE 7 11 30.09 1019 3 5 0.01 0.25
5:53 pm 17:53 Cloudy with Light Snow 33 0.6 31 -0.6 92 92 ENE 8 13 30.10 1019 6 10 0.01 0.25
6:53 pm 18:53 Cloudy 35 1.7 30 -1.1 82 82 N N/A 30.06 1018 10 16 N/A
7:53 pm 19:53 Cloudy 35 1.7 31 -0.6 85 85 ENE 5 7 30.12 1020 10 16 N/A
8:53 pm 20:53 Cloudy 34 1.1 33 0.6 97 97 N N/A 30.12 1020 10 16 N/A
9:53 pm 21:53 Cloudy 34 1.1 33 0.6 97 97 ESE 3 6 30.12 1020 10 16 N/A
10:53 pm 22:53 Cloudy 37 2.8 30 -1.1 76 76 ENE 5 7 30.14 1021 10 16 N/A
11:53 pm 23:53 Mostly Cloudy 37 2.8 28 -2.2 70 70 NNE 5 7 30.15 1021 10 16 N/A

Powered by AerisWeather